This demonstration page uses our WeatherBlox Daily Observations layout. Learn more.

38.88101, -77.10428

Hourly Observations for October 15, 2017

Temp ( °F °C ) Dew Point ( °F °C ) Humidity (%) Winds ( mph kmh ) Pressure ( in mb ) Visibility ( mi km ) Precip ( " mm )
12:52 am 00:52 Cloudy 65 18.3 64 17.8 97 97 SSE 7 11 30.16 1022 8 12.87472 0 0
1:05 am 01:05 Cloudy with Light Drizzle 64 17.8 64 17.8 100 100 SSE 6 9 30.18 1022 6 9.65604 0 0.0254
1:52 am 01:52 Cloudy 65 18.3 64 17.8 97 97 S 5 7 30.15 1021 9 14.48406 0 0.0254
2:04 am 02:04 Cloudy 65 18.3 64 17.8 97 97 S 7 11 30.15 1021 10 16.0934 0 0
2:26 am 02:26 Cloudy 65 18.3 64 17.8 97 97 S 5 7 30.15 1021 9 14.48406 0 0
2:50 am 02:50 Mostly Clear 64 18 64 18 100 100 undefined N/A 30.15 1021 N/A 0 0
2:52 am 02:52 Mostly Clear 65 18.3 65 18.3 100 100 undefined N/A 30.14 1021 N/A 0 0
3:02 am 03:02 Cloudy 65 18.3 65 18.3 100 100 S 5 7 30.15 1021 10 16.0934 0 0
3:11 am 03:11 Cloudy with Mist and Fog 65 18.3 65 18.3 100 100 Calm 30.15 1021 2.5 4.02335 0 0
3:23 am 03:23 Cloudy with Light Drizzle 65 18.3 64 17.8 97 97 Calm 30.15 1021 1.5 2.41401 0 0
3:52 am 03:52 Cloudy with Mist and Fog 64 17.8 62 16.7 93 93 SW 8 13 30.13 1020 5 8.0467 0 0
4:36 am 04:36 Cloudy 64 17.8 64 17.8 100 100 SW 12 19 30.12 1020 10 16.0934 0 0
4:52 am 04:52 Cloudy 64 17.8 64 17.8 100 100 S 9 15 30.12 1020 10 16.0934 0 0
5:04 am 05:04 Cloudy 64 17.8 63 17.2 96 96 SSW 10 17 30.12 1020 10 16.0934 0 0
5:52 am 05:52 Cloudy 64 17.8 63 17.2 96 96 SSW 8 13 30.11 1020 10 16.0934 0 0
6:43 am 06:43 Cloudy with Light Drizzle 64 17.8 64 17.8 100 100 S 6 9 30.12 1020 4 6.43736 0 0.0254
6:52 am 06:52 Cloudy with Light Drizzle 64 17.8 64 17.8 100 100 S 8 13 30.11 1020 3 4.82802 0 0.0254
7:52 am 07:52 Cloudy with Light Drizzle 65 18.3 65 18.3 100 100 SSW 13 20 30.1 1019 7 11.26538 0 0.0254
8:52 am 08:52 Cloudy with Mist and Fog 65 18.3 65 18.3 100 100 SSW 8 13 30.11 1020 6 9.65604 0 0.0254
9:52 am 09:52 Cloudy with Light Drizzle 66 18.9 66 18.9 100 100 S 9 15 30.09 1019 8 12.87472 0 0.0254
10:17 am 10:17 Cloudy with Light Drizzle 67 19.4 66 18.9 97 97 SSW 10 17 30.09 1019 10 16.0934 0 0.0254
10:37 am 10:37 Cloudy 68 20 66 18.9 93 93 S 7 11 30.09 1019 10 16.0934 0 0.0254
10:52 am 10:52 Cloudy 68 20 66 18.9 93 93 S 10 17 30.07 1018 10 16.0934 0 0.0254
11:52 am 11:52 Cloudy 70 21.1 66 18.9 87 87 S 10 17 30.04 1017 10 16.0934 0 0
12:52 pm 12:52 Cloudy 72 22.2 66 18.9 82 82 SSW 12 19 30.02 1017 10 16.0934 0 0
1:52 pm 13:52 Cloudy 74 23.3 66 18.9 76 76 SSW 14 22 29.97 1015 10 16.0934 0 0
2:26 pm 14:26 Mostly Cloudy 76 24.4 67 19.4 74 74 S 12 19 29.97 1015 10 16.0934 0 0
2:52 pm 14:52 Mostly Cloudy 76 24.4 66 18.9 72 72 S 12 19 29.94 1014 10 16.0934 0 0
3:28 pm 15:28 Partly Cloudy 77 25 67 19.4 71 71 S 13 20 29.94 1014 10 16.0934 0 0
3:52 pm 15:52 Mostly Sunny 78 25.6 67 19.4 69 69 SSW 14 22 29.93 1013 10 16.0934 0 0
4:52 pm 16:52 Mostly Sunny 78 25.6 67 19.4 69 69 S 13 20 29.9 1013 10 16.0934 0 0
5:52 pm 17:52 Sunny 76 24.4 68 20 77 77 S 8 13 29.89 1012 10 16.0934 0 0
6:52 pm 18:52 Clear 74 23.3 68 20 82 82 S 9 15 29.88 1012 10 16.0934 0 0
7:52 pm 19:52 Clear 73 22.8 67 19.4 81 81 S 10 17 29.88 1012 10 16.0934 0 0
8:52 pm 20:52 Clear 73 22.8 67 19.4 81 81 SSW 12 19 29.87 1012 10 16.0934 0 0
9:52 pm 21:52 Partly Cloudy 73 22.8 66 18.9 79 79 SSW 12 19 29.87 1011 10 16.0934 0 0
10:52 pm 22:52 Partly Cloudy 72 22.2 66 18.9 82 82 SSW 10 17 29.86 1011 10 16.0934 0 0
11:52 pm 23:52 Cloudy 73 22.8 67 19.4 81 81 SW 12 19 29.86 1011 10 16.0934 0 0

Powered by AerisWeather